Simultaneous Nadir Overpasses (SNOs) Predictions

Prediction of SNOs between AQUA and METOP-A Satellite Orbit:

Table of predicted SNOs for the next 14.0 days since TLE Epoch: 1/20/2017
Index Date (AQUA) Time (AQUA) Lat,Lon (AQUA) SZA (AQUA ) Date (METOP-A) Time (METOP-A) Lat,Lon (METOP-A) SZA (METOP-A ) Distance(km) Time Diff (sec)
1 01/22/2017 06:45:18 -73.82,-107.17 86.49 01/22/2017 06:44:55 -73.83,-107.19 86.47 0.81 23
2 01/22/2017 07:34:47 73.89, 60.32 93.58 01/22/2017 07:35:34 73.88, 60.27 93.57 1.74 47
3 01/25/2017 01:29:56 73.11, 153.11 92.10 01/25/2017 01:28:51 73.04, 150.12 92.18 97.21 65
4 01/25/2017 02:19:35 -73.82, -40.74 87.15 01/25/2017 02:19:17 -73.82, -40.79 87.14 1.43 18
5 01/25/2017 03:09:04 73.89, 126.74 92.92 01/25/2017 03:09:56 73.87, 126.67 92.90 3.09 52
6 01/27/2017 21:04:15 73.28,-140.80 91.57 01/27/2017 21:03:08 73.24,-143.05 91.64 72.22 67
7 01/27/2017 21:53:51 -73.83, 25.67 87.85 01/27/2017 21:53:38 -73.82, 25.61 87.86 2.70 13
8 01/27/2017 22:43:20 73.90,-166.85 92.22 01/27/2017 22:44:16 73.92,-166.82 92.23 1.61 56
9 01/30/2017 16:38:36 73.51, -74.84 91.06 01/30/2017 16:37:26 73.43, -76.21 91.06 44.18 70
10 01/30/2017 17:28:08 -73.85, 92.07 88.59 01/30/2017 17:27:59 -73.86, 92.12 88.58 1.74 9
11 01/30/2017 18:17:37 73.92,-100.46 91.49 01/30/2017 18:18:38 73.91,-100.43 91.46 2.10 61
12 02/02/2017 12:12:56 73.70, -8.80 90.47 02/02/2017 12:11:44 73.62, -9.36 90.43 19.59 72
13 02/02/2017 13:02:24 -73.82, 158.56 89.41 02/02/2017 13:02:21 -73.85, 158.50 89.38 3.16 3




NCC Satellite Simultaneous Nadir Overpasses (SNOs) Prediction Service
